Weather History for Payson, AZ

Change the Weather History Date:

Tuesday, January 7, 2014

  Actual Average Record
Temperature  
Mean Temperature 42 °F -  
Max Temperature 51 °F 50 °F 53 °F (2012)
Min Temperature 33 °F 23 °F 30 °F (2013)
Degree Days  
Heating Degree Days 23    
Moisture  
Dew Point 9 °F    
Average Humidity 27    
Maximum Humidity 38    
Minimum Humidity 16    
Precipitation  
Precipitation 0.00 in - - ()
Sea Level Pressure  
Sea Level Pressure 30.19 in    
Wind  
Wind Speed 4 mph (ESE)    
Max Wind Speed 7 mph    
Max Gust Speed -    
Visibility 10 miles    
Events      
Averages and records for this station are not official NWS values.
T = Trace of Precipitation, MM = Missing Value Source: NWS Daily Summary

Daily Weather History Graph

Daily Weather History Graph

Search for Another Location

Airport:

Trip Planner

Search our weather history database for the weather conditions in past years. The results will help you decide how hot, cold, wet, or windy it might be!

Date:

Astronomy

Jan. 07, 2014 Rise Set
Actual Time 7:32 AM MST 5:31 PM MST
Civil Twilight 7:04 AM MST 5:59 PM MST
Nautical Twilight 6:33 AM MST 6:30 PM MST
Astronomical Twilight 6:03 AM MST 7:00 PM MST
Moon 11:42 AM MST (1/7) No Moon Set
Length of Visible Light 10h 54m
Length of Day
9h 59m
Waxing Crescent, 46% of the Moon is Illuminated
Jan 7
Waxing Crescent
Jan 7
First Quarter
Jan 15
Full
Jan 23
Last Quarter
Jan 30
New

Hourly Weather History & Observations

Time (MST) Temp. Windchill Dew Point Humidity Pressure Visibility Wind Dir Wind Speed Gust Speed Precip Events Conditions
12:15 AM 39.2 °F 35.0 °F 6.8 °F 26% 30.25 in 10.0 mi ESE 5.8 mph - N/A   Clear
12:35 AM 39.2 °F 35.9 °F 6.8 °F 26% 30.25 in 10.0 mi ESE 4.6 mph - N/A   Clear
12:55 AM 37.4 °F 34.9 °F 6.8 °F 28% 30.25 in 10.0 mi ESE 3.5 mph - N/A   Clear
1:15 AM 33.8 °F - 8.6 °F 35% 30.26 in 10.0 mi Calm Calm - N/A   Clear
1:35 AM 39.2 °F 35.0 °F 6.8 °F 26% 30.24 in 10.0 mi East 5.8 mph - N/A   Clear
1:55 AM 37.4 °F 33.8 °F 6.8 °F 28% 30.24 in 10.0 mi East 4.6 mph - N/A   Clear
2:15 AM 37.4 °F 34.9 °F 6.8 °F 28% 30.25 in 10.0 mi ENE 3.5 mph - N/A   Clear
2:35 AM 37.4 °F 32.8 °F 6.8 °F 28% 30.24 in 10.0 mi East 5.8 mph - N/A   Clear
2:55 AM 37.4 °F - 6.8 °F 28% 30.25 in 10.0 mi Calm Calm - N/A   Clear
3:35 AM 37.4 °F 32.8 °F 6.8 °F 28% 30.24 in 10.0 mi East 5.8 mph - N/A   Clear
3:55 AM 39.2 °F 34.2 °F 6.8 °F 26% 30.24 in 10.0 mi East 6.9 mph - N/A   Clear
4:15 AM 37.4 °F 32.8 °F 6.8 °F 28% 30.24 in 10.0 mi East 5.8 mph - N/A   Clear
4:35 AM 37.4 °F 32.1 °F 8.6 °F 30% 30.24 in 10.0 mi ESE 6.9 mph - N/A   Clear
4:55 AM 37.4 °F 33.8 °F 6.8 °F 28% 30.24 in 10.0 mi East 4.6 mph - N/A   Clear
5:15 AM 35.6 °F 31.7 °F 8.6 °F 33% 30.23 in 10.0 mi East 4.6 mph - N/A   Clear
5:35 AM 35.6 °F 31.7 °F 8.6 °F 33% 30.23 in 10.0 mi East 4.6 mph - N/A   Clear
5:55 AM 35.6 °F 31.7 °F 8.6 °F 33% 30.24 in 10.0 mi East 4.6 mph - N/A   Clear
6:15 AM 33.8 °F 30.8 °F 8.6 °F 35% 30.24 in 10.0 mi ENE 3.5 mph - N/A   Clear
6:35 AM 35.6 °F 30.7 °F 8.6 °F 33% 30.24 in 10.0 mi East 5.8 mph - N/A   Clear
6:55 AM 35.6 °F 31.7 °F 6.8 °F 30% 30.24 in 10.0 mi East 4.6 mph - N/A   Clear
7:15 AM 35.6 °F 31.7 °F 6.8 °F 30% 30.24 in 10.0 mi ENE 4.6 mph - N/A   Clear
7:35 AM 35.6 °F 31.7 °F 8.6 °F 33% 30.24 in 10.0 mi ENE 4.6 mph - N/A   Clear
7:55 AM 37.4 °F 34.9 °F 6.8 °F 28% 30.24 in 10.0 mi East 3.5 mph - N/A   Clear
8:15 AM 35.6 °F 31.7 °F 8.6 °F 33% 30.24 in 10.0 mi East 4.6 mph - N/A   Clear
8:35 AM 37.4 °F 33.8 °F 8.6 °F 30% 30.24 in 10.0 mi ENE 4.6 mph - N/A   Clear
8:55 AM 37.4 °F 34.9 °F 10.4 °F 33% 30.25 in 10.0 mi ENE 3.5 mph - N/A   Clear
9:15 AM 39.2 °F 37.0 °F 8.6 °F 28% 30.25 in 10.0 mi ENE 3.5 mph - N/A   Clear
9:35 AM 41.0 °F 38.0 °F 8.6 °F 26% 30.26 in 10.0 mi ENE 4.6 mph - N/A   Clear
9:55 AM 42.8 °F 40.1 °F 8.6 °F 25% 30.26 in 10.0 mi Variable 4.6 mph - N/A   Clear
10:15 AM 42.8 °F 40.1 °F 8.6 °F 25% 30.25 in 10.0 mi Variable 4.6 mph - N/A   Clear
10:35 AM 44.6 °F 42.2 °F 6.8 °F 21% 30.26 in 10.0 mi Variable 4.6 mph - N/A   Clear
10:55 AM 46.4 °F 45.2 °F 8.6 °F 22% 30.25 in 10.0 mi Variable 3.5 mph - N/A   Clear
11:15 AM 46.4 °F 42.9 °F 6.8 °F 20% 30.24 in 10.0 mi Variable 6.9 mph - N/A   Clear
11:35 AM 48.2 °F - 6.8 °F 19% 30.22 in 10.0 mi Variable 5.8 mph - N/A   Clear
11:55 AM 48.2 °F - 6.8 °F 19% 30.21 in 10.0 mi Variable 5.8 mph - N/A   Clear
12:15 PM 50.0 °F - 8.6 °F 19% 30.19 in 10.0 mi Variable 4.6 mph - N/A   Clear
12:35 PM 50.0 °F - 8.6 °F 19% 30.17 in 10.0 mi SSW 4.6 mph - N/A   Clear
12:55 PM 51.8 °F - 8.6 °F 18% 30.15 in 10.0 mi Variable 6.9 mph - N/A   Clear
1:15 PM 51.8 °F - 8.6 °F 18% 30.14 in 10.0 mi Variable 4.6 mph - N/A   Clear
1:35 PM 51.8 °F - 10.4 °F 19% 30.15 in 10.0 mi Variable 4.6 mph - N/A   Clear
1:55 PM 51.8 °F - 10.4 °F 19% 30.15 in 10.0 mi SSW 5.8 mph - N/A   Clear
2:15 PM 51.8 °F - 10.4 °F 19% 30.14 in 10.0 mi SW 5.8 mph - N/A   Clear
2:35 PM 51.8 °F - 10.4 °F 19% 30.13 in 10.0 mi SW 6.9 mph - N/A   Clear
2:55 PM 51.8 °F - 6.8 °F 16% 30.13 in 10.0 mi SSW 6.9 mph - N/A   Clear
3:15 PM 51.8 °F - 6.8 °F 16% 30.14 in 10.0 mi SSW 5.8 mph - N/A   Clear
3:35 PM 50.0 °F - 6.8 °F 17% 30.14 in 10.0 mi SSW 5.8 mph - N/A   Clear
3:55 PM 48.2 °F - 6.8 °F 19% 30.14 in 10.0 mi SSW 4.6 mph - N/A   Clear
4:15 PM 46.4 °F 43.5 °F 8.6 °F 22% 30.14 in 10.0 mi SSW 5.8 mph - N/A   Clear
4:35 PM 46.4 °F - 10.4 °F 23% 30.14 in 10.0 mi Calm Calm - N/A   Clear
4:55 PM 44.6 °F - 10.4 °F 25% 30.14 in 10.0 mi Calm Calm - N/A   Clear
5:15 PM 44.6 °F - 10.4 °F 25% 30.13 in 10.0 mi Calm Calm - N/A   Clear
5:35 PM 42.8 °F - 10.4 °F 27% 30.13 in 10.0 mi Calm Calm - N/A   Clear
5:55 PM 41.0 °F - 12.2 °F 31% 30.13 in 10.0 mi Calm Calm - N/A   Clear
6:15 PM 42.8 °F - 10.4 °F 27% 30.12 in 10.0 mi Calm Calm - N/A   Clear
6:35 PM 41.0 °F - 8.6 °F 26% 30.13 in 10.0 mi Calm Calm - N/A   Clear
6:55 PM 41.0 °F - 10.4 °F 29% 30.14 in 10.0 mi Calm Calm - N/A   Clear
7:15 PM 41.0 °F - 10.4 °F 29% 30.13 in 10.0 mi Calm Calm - N/A   Clear
7:35 PM 42.8 °F - 8.6 °F 25% 30.13 in 10.0 mi Calm Calm - N/A   Clear
7:55 PM 41.0 °F - 12.2 °F 31% 30.13 in 10.0 mi Calm Calm - N/A   Clear
8:15 PM 39.2 °F - 12.2 °F 33% 30.13 in 10.0 mi Calm Calm - N/A   Clear
8:35 PM 39.2 °F - 12.2 °F 33% 30.14 in 10.0 mi Calm Calm - N/A   Clear
8:55 PM 39.2 °F - 14.0 °F 36% 30.14 in 10.0 mi Calm Calm - N/A   Clear
9:15 PM 39.2 °F - 14.0 °F 36% 30.14 in 10.0 mi Calm Calm - N/A   Clear
9:35 PM 39.2 °F - 14.0 °F 36% 30.15 in 10.0 mi Calm Calm - N/A   Clear
9:55 PM 39.2 °F - 14.0 °F 36% 30.14 in 10.0 mi Calm Calm - N/A   Clear
10:15 PM 39.2 °F - 12.2 °F 33% 30.15 in 10.0 mi Calm Calm - N/A   Clear
10:35 PM 39.2 °F - 14.0 °F 36% 30.15 in 10.0 mi Calm Calm - N/A   Clear
10:55 PM 39.2 °F - 14.0 °F 36% 30.15 in 10.0 mi Calm Calm - N/A   Clear
11:15 PM 37.4 °F - 14.0 °F 38% 30.14 in 10.0 mi Calm Calm - N/A   Clear
11:55 PM 37.4 °F - 14.0 °F 38% 30.13 in 10.0 mi Calm Calm - N/A   Clear